This is the latest recevied weather packets stored in our database for station/object N1TKS. If no packets are shown the sender has not sent any weather packets the latest 10 day(s).
| Time | Temp. | Humidity | Pressure | Rain* | Wind** | Luminosity | Snow |
|---|---|---|---|---|---|---|---|
| 1777994814 | 22.22° C | 61% | 1011.1 hPa | 0 mm | - | - | - |
| 1777994707 | 21.67° C | 61% | 1011.2 hPa | 0 mm | - | - | - |
| 1777994513 | 21.67° C | 61% | 1011.2 hPa | 0 mm | - | - | - |
| 1777994328 | 21.67° C | 63% | 1011.2 hPa | 0 mm | - | - | - |
| 1777994213 | 21.67° C | 63% | 1011.2 hPa | 0 mm | - | - | - |
| 1777994029 | 20.56° C | 65% | 1011.5 hPa | 0 mm | - | - | - |
| 1777993724 | 21.11° C | 63% | 1011.4 hPa | 0 mm | - | - | - |
| 1777993658 | 21.11° C | 63% | 1011.4 hPa | 0 mm | - | - | - |
| 1777993615 | 21.11° C | 63% | 1011.4 hPa | 0 mm | - | - | - |
| 1777993362 | 21.11° C | 64% | 1011.5 hPa | 0 mm | - | - | - |
| 1777993314 | 21.11° C | 64% | 1011.5 hPa | 0 mm | - | - | - |
| 1777993013 | 21.11° C | 65% | 1011.5 hPa | 0 mm | - | - | - |
| 1777992718 | 20.56° C | 65% | 1011.5 hPa | 0 mm | - | - | - |
| 1777992414 | 20.56° C | 65% | 1011.5 hPa | 0 mm | - | - | - |
| 1777992108 | 20.56° C | 67% | 1011.4 hPa | 0 mm | - | - | - |
| 1777991813 | 20.56° C | 65% | 1011.4 hPa | 0 mm | - | - | - |
| 1777991514 | 20.56° C | 64% | 1011.5 hPa | 0 mm | - | - | - |
| 1777991213 | 21.11° C | 63% | 1011.5 hPa | 0 mm | - | - | - |
| 1777990964 | 20.56° C | 64% | 1011.4 hPa | 0 mm | - | - | - |
| 1777990914 | 20.56° C | 64% | 1011.4 hPa | 0 mm | - | - | - |
| 1777990614 | 20.56° C | 64% | 1011.3 hPa | 0 mm | - | - | - |
| 1777990013 | 20° C | 66% | 1011.4 hPa | 0 mm | - | - | - |
| 1777989714 | 20° C | 66% | 1011.5 hPa | 0 mm | - | - | - |
| 1777989413 | 20° C | 69% | 1011.6 hPa | 0 mm | - | - | - |
| 1777989114 | 19.44° C | 68% | 1011.6 hPa | 0 mm | - | - | - |
* Rain latest hour (hover to see other rain measurements)
** Current wind speed in m/s (hover to see current wind gust speed)